www.pogodaiklimat.ru

Погода и климат >> Архив погоды >> Россия >> Челябинская область >> Кизильское


ПОГОДА в Кизильском

  • Прогноз погоды в Кизильском
  • Монитор погоды в Кизильском

АРХИВ ПОГОДЫ в Кизильском

Время (UTC), дата Ветер
(напр.,м/с)
 
Видим.   Явления Облачность Т
(С)
Тd
(С)
f
(%)
Тe
(С)
Тes
(С)
Комфортность P
(гПа)
Po
(гПа)
Тmin
(С)
Tmax
(С)
R
(мм)
R24
(мм)
S
(см)
09 13.09 Ю 2 50 км 6/0
[Ci fib]
+22.0 +4.2 31 +22 +30 комфорт 1023.7 986.0
12 13.09 З 2 50 км 3/0
[Ci fib]
+22.9 +1.5 24 +22 +25 комфорт 1021.9 984.3
15 13.09 З 1 10 км 1/0
[Ci fib]
+17.7 +4.6 42 +19 +19 1022.1 983.8 +23.3
18 13.09 Ю 1 10 км ясно +10.4 +4.5 67 +10 +10 1023.2 983.9
21 13.09 штиль 0 10 км ясно +7.8 +4.8 81 +7 +7 1023.1 983.5
00 14.09 штиль 0 10 км ясно +5.3 +3.1 86 +4 +4 1023.0 983.0
03 14.09 штиль 0 20 км ясно +7.6 +4.4 80 +7 +8 1022.5 982.9 +4.5
06 14.09 С 1 50 км ясно +19.6 +7.3 45 +21 +29 комфорт 1020.3 982.3
09 14.09 СЗ 1 50 км 3/3 600 м
[Cu hum]
+23.3 +3.5 27 +23 +30 комфорт 1018.5 981.1
12 14.09 З 2 50 км 3/3 600 м
[Cb calv]
+23.9 +0.6 22 +23 +25 комфорт 1017.3 980.0
15 14.09 З 1 10 км ясно +18.3 +3.9 38 +20 +20 1017.8 979.8 +24.1
18 14.09 ЮВ 1 10 км ясно +11.7 +4.0 59 +12 +12 1018.8 979.8
21 14.09 Ю 1 10 км ясно +8.8 +3.5 69 +8 +8 1018.7 979.4
00 15.09 Ю 2 10 км ясно +7.7 +3.2 73 +6 +6 1018.6 979.1
03 15.09 ЮВ 2 20 км 3/3 600 м
[Sc]
+9.2 +4.2 71 +8 +8 1018.0 978.7 +6.7
06 15.09 Ю 3 20 км 6/5 600 м
[Sc Ci fib]
+22.0 +3.8 30 +22 +25 комфорт 1015.7 978.2
09 15.09 ЮЗ 5
{13}
20 км 8/6 600 м
[Cb calv Ci fib]
+24.0 -1.1 19 +23 +24 комфорт 1014.2 977.0
12 15.09 З 5-10
{11}
20 км 9/8 600 м
[Cb calv Ci fib]
+23.8 -0.8 20 +23 +23 комфорт 1013.0 975.8
15 15.09 З 2
{10}
10 км 9/9 600 м
[Cb calv]
+19.3 +1.8 31 +20 +20 1012.8 975.1 +25.7
18 15.09 ЮЗ 3 10 км 9/9 600 м
[Cb calv]
+16.6 +3.0 40 +16 +16 1012.2 974.1
21 15.09 ЮЗ 2 10 км 10/9 600 м
[Cb calv Ci fib]
+14.7 +3.1 46 +15 +15 1011.1 972.9
00 16.09 Ю 1 10 км 10/10 600 м
[Cb calv]
+12.0 +4.3 59 +12 +12 1009.9 971.4
03 16.09 З 3 20 км 8/5 600 м
[Cb calv Ac cast Ci fib]
+12.6 +5.0 60 +11 +12 1009.8 971.3 +11.1
06 16.09 З 3 20 км {ливн. осадки} 9/8 600 м
[Cb calv Ci fib]
+13.5 +6.6 63 +12 +13 1009.6 971.2
09 16.09 З 4 50 км 9/6 600 м
[Cb calv Ac trans Ci sp]
+15.7 +1.6 38 +15 +16 1009.5 971.4
12 16.09 З 5
{13}
20 км 9/9 600 м
[Cb calv]
+13.1 +3.3 51 +11 +11 1010.5 972.1
15 16.09 З 4
{10}
10 км 10/3 600 м
[Cb calv Ac und]
+12.1 +3.6 56 +10 +10 1010.3 971.7 +17.3 0.3
18 16.09 ЮЗ 3 10 км 9/9 600 м
[Cb calv]
+11.8 +3.5 57 +10 +10 1010.6 972.0
21 16.09 ЮЗ 3
{11}
10 км 10/10 600 м
[Cb calv]
+10.6 +2.4 57 +9 +9 1009.9 971.2
00 17.09 Ю 3 10 км 10/10 600 м
[Cb calv]
+10.6 +2.5 57 +9 +9 1008.4 969.7
03 17.09 ЮЗ 5-11
{11}
20 км 10/10 600 м
[Cb calv]
+11.0 +0.9 50 +9 +9 1007.4 968.8 +10.1
06 17.09 ЮЗ 7-13
{13}
20 км 9/9 600 м
[Cb calv]
+15.6 -0.9 32 +14 +14 1007.3 969.3
09 17.09 З 8-13
{16}
20 км 8/8 600 м
[Cb calv]
+20.2 +2.6 31 +20 +20 1005.9 968.6
12 17.09 ЮЗ 4
{15}
20 км 9/9 600 м
[Cb calv]
+19.3 +1.5 30 +19 +20 1006.3 968.8
15 17.09 ЮЗ 1 10 км 9/9 600 м
[Cb calv]
+16.9 +2.1 37 +18 +18 1006.7 968.9 +20.2
18 17.09 Ю 1 10 км 9/9 600 м
[Cb calv]
+14.3 +3.0 47 +15 +15 1006.6 968.4
21 17.09 ЮВ 1 10 км в посл. час ливневой дождь 9/9 600 м
[Cb calv]
+12.9 +5.1 59 +13 +13 1005.2 967.0
00 18.09 Ю 2 10 км {ливн. осадки} 9/5 600 м
[Cb calv Ac trans]
+12.3 +3.9 56 +12 +12 1004.0 965.7
03 18.09 Ю 3 20 км 9/6 600 м
[Cb calv Ci]
+14.3 +5.0 54 +14 +14 1003.5 965.5 +11.3
06 18.09 ЮЗ 3 20 км 10/10 600 м
[Cb calv]
+17.1 +6.7 50 +17 +17 1003.2 965.6
09 18.09 ЮЗ 4 20 км в посл. час ливневой дождь 10/10 600 м
[Cb calv]
+17.0 +7.6 54 +17 +17 1003.3 965.7
12 18.09 З 4
{10}
20 км {ливн. осадки} 9/9 600 м
[Cb calv]
+16.1 +8.7 61 +15 +16 1004.3 966.6
15 18.09 ЮЗ 2 10 км 4/4 600 м
[Cb calv]
+12.6 +6.8 68 +12 +12 1006.3 968.0 +18.2 0.0
18 18.09 Ю 1 10 км 3/3 600 м
[Cb calv]
+9.8 +6.7 81 +9 +9 1007.3 968.6
21 18.09 Ю 2 10 км ясно +7.9 +6.4 90 +6 +6 1007.0 968.0
00 19.09 Ю 3 1000 м в посл. час туман ясно +8.6 +7.5 93 +6 +6 1004.2 965.5
03 19.09 Ю 5-11
{11}
10 км слаб. ливневой дождь 9/9 600 м
[Cb calv]
+11.8 +8.4 80 +9 +9 999.7 961.5 +7.2 0.3
06 19.09 ЮЗ 8-16
{19}
10 км слаб. ливневой дождь 10/10 300 м
[Cb calv]
+13.9 +8.5 70 +11 +11 997.2 959.4
09 19.09 ЮЗ 10-20
{21}
20 км 3/3 600 м
[Cb calv]
+15.4 -3.3 27 +13 +14 997.7 960.0
12 19.09 ЮЗ 14
{28}
20 км 6/6 600 м
[Cb calv]
+12.3 -1.5 38 +9 +9 1000.3 962.1
15 19.09 З 5-12
{28}
10 км 5/5 600 м
[Cb calv]
+8.8 +3.2 68 +6 +6 1004.1 965.3 +16.4 0.8
18 19.09 З 3
{13}
10 км 9/9 600 м
[Cb calv]
+9.6 +2.6 62 +8 +8 1008.8 969.9
21 19.09 З 3
{11}
10 км 8/8 600 м
[Cb calv]
+9.0 +2.7 65 +7 +7 1010.8 971.8
00 20.09 ЮЗ 4 10 км 4/4 600 м
[Cb calv]
+6.5 +3.2 79 +3 +3 1012.5 973.1
03 20.09 Ю 3 20 км 6/6 600 м
[Cb calv]
+6.0 +2.9 80 +3 +3 1014.0 974.5 +4.4
06 20.09 З 4 20 км 6/6 600 м
[Cb calv]
+11.3 +2.6 55 +9 +11 1014.7 975.9

 

Местоположение метеостанции Кизильское (Челябинская область, Россия): широта 52.72 долгота 58.88 высота над уровнем моря 323 м.

В архиве по умолчанию представлена погода в Кизильском за последнюю неделю. Архивные данные за месяц целиком и за предыдущие месяцы, начиная с января 2011 года, Вы можете получить, выбрав интересующий диапазон дат из раскрывающегося списка и нажав кнопку "Ввод!".


*Определитесь, кто Вы:
робот инопланетянин человек

Внимание! Время в таблицах - всемирное. Для получения местного времени необходимо прибавить поправку, которая равна 5 ч.

Смотрите также архив погоды в соседних городах и на ближайших метеорологических станциях:

Погода в Магнитогорске (Челябинская область, Россия) (71 км)
Погода в Бредах (Челябинская область, Россия) (104 км)
Погода в Энергетике (Оренбургская область, Россия) (106 км)
Погода в Акъяре (Башкирия, Россия) (106 км)
Погода в Старосубхангулово (Башкирия, Россия) (106 км)
Погода в Айдырля (Оренбургская область, Россия) (109 км)
Погода в Зилаире (Башкирия, Россия) (115 км)
Погода в Карталы (Челябинская область, Россия) (126 км)
Погода в Шульган-Таше (Башкирия, Россия) (127 км)
Погода в Верхнеуральске (Челябинская область, Россия) (131 км)

Пояснения к столбцам:

Ветер - указаны скорость ветра в м/с - средняя за 10 мин, порывы в срок и между сроками (в фигурных скобках) и направление, откуда дует ветер: С - северный, СВ - северо-восточный, В - восточный, ЮВ - юго-восточный, Ю - южный, ЮЗ - юго-западный, З - западный, СЗ - северо-западный.
Видимость - горизонтальная дальность видимости в метрах или километрах. При видимости от 1 до 10 км при отсутствии осадков обычно наблюдается дымка, при ухудшении видимости до 1 км и менее - туман. В сухую погоду видимость может ухудшаться дымом, пылью или мглою.
Явления - указаны атмосферные явления, наблюдавшиеся в срок или в последний час перед сроком; фигурными скобками обозначены явления, наблюдавшиеся между сроками (за 1-3 часа до срока); квадратными скобками обозначены град или гололедные отложения с указанием их диаметра в мм.
Облачность - указаны через наклонную черту общая и нижняя облачность в баллах и высота нижней границы облаков в метрах; квадратными скобками обозначены формы облаков: Ci - перистые, Cs - перисто-слоистые, Cc - перисто-кучевые, Ac - высококучевые, As - высокослоистые, Sc - слоисто-кучевые, Ns - слоисто-дождевые, Cu - кучевые, Cb - кучево-дождевые. Подробнее классификацию облаков см. в Атласе облаков (PDF).
T - Температура воздуха - температура, измеренная на высоте 2 м над землей.
Td - Температура точки росы - температура, при понижении до которой содержащийся в воздухе водяной пар достигнет насыщения.
f - Относительная влажность воздуха - влажноcть воздуха, измеренная на высоте 2 м над землей.
Te - Эффективная температура - температура, которую ощущает одетый по сезону человек в тени. Характеристика душности погоды. При расчете учитывается влияние влажности воздуха и скорости ветра на теплоощущения человека.
Tes - Эффективная температура на солнце - температура, которую ощущает человек, с поправкой на солнечный нагрев. Характеристика знойности погоды. Зависит от высоты солнца над горизонтом, облачности и скорости ветра. Ночью, в пасмурную погоду, а также при ветре 12 м/с и более поправка равна нулю.
P - Атмосферное давление - приведенное к уровню моря атмосферное давление.
Po - Атмосферное давление - измеренное на уровне метеостанции атмосферное давление.
Tmin - Минимальная температура - минимум температуры воздуха на высоте 2 м над землей.
Tmax - Максимальная температура - максимум температуры воздуха на высоте 2 м над землей.
R - Количество осадков - Количество выпавших осадков за период времени, мм. При наведении курсора мыши на число - период времени, за который выпало указанное количество осадков.
R24 - Количество осадков - Количество выпавших осадков за 24 часа, мм.
S - Снежный покров - Высота снежного покрова, см. При наведении курсора мыши на число - состояние снежного покрова и степень покрытия местности в баллах.